Terminal Aerodrome Forecast
Issued by NWS Mt. Holly, NJ

Home | Current Version | Previous Version | Text Only | Print | Product List | Glossary On
Versions: 1 2 3 4 5 6 7 8 9 10 11 12 13 14 15 16 17 18 19 20 21 22 23 24 25 26 27
000
FTUS41 KPHI 290523
TAFACY
TAF
KACY 290523Z 2906/3006 32010G18KT P6SM SCT050
     FM291300 32012KT P6SM SKC
     FM292000 27008KT P6SM SKC
     FM300000 VRB03KT P6SM SCT250
     FM300400 19005KT P6SM BKN200=

USA.gov is the U.S. government's official web portal to all federal, state and local government web resources and services.